Regional Weather Roundup
Issued by NWS

Home | Current Version | Previous Version | Graphics & Text | Print | Product List | Glossary On
Versions: 1 2 3 4 5 6 7 8 9 10 11 12 13 14 15 16 17 18 19 20 21 22 23 24 25 26 27 28 29 30 31 32 33 34 35 36 37 38 39 40 41 42 43 44 45 46 47 48 49 50
000
ASUS43 KDMX 191907
RWRIA

WEATHER ROUNDUP FOR IOWA
NATIONAL WEATHER SERVICE DES MOINES IA
200 PM CDT FRI SEP 19 2014

NOTE: "FAIR" INDICATES FEW OR NO CLOUDS BELOW 12,000 FEET WITH NO
SIGNIFICANT WEATHER AND/OR OBSTRUCTIONS TO VISIBILITY.

* - THESE STATIONS ARE NOT NWS STATIONS...THUS NOT UNDER NWS
QUALITY CONTROL.  THEY ALSO DO NOT REPORT WEATHER SUCH
AS PRECIPITATION OR FOG.

IAZ001>003-012>014-020>022-031>034-043>046-192000-
   NORTHWEST IOWA

CITY           SKY/WX    TMP DP  RH WIND       PRES   REMARKS
CARROLL *      SUNNY     79  66  65 S16G25    29.85F HX  81
CHEROKEE *     SUNNY     81  68  65 S22G31    29.77F HX  83
DENISON *      SUNNY     79  68  69 S14G25    29.82F HX  81
LE MARS *      SUNNY     82  68  61 S24G31    29.74F HX  85
ORANGE CITY *  SUNNY     82  64  54 S25G35    29.73F HX  84
SHELDON *      SUNNY     81  66  61 S23G35    29.72F HX  83
SIOUX CITY     SUNNY     85  67  54 S15G23    29.78F HX  87
SPENCER        SUNNY     80  64  58 S28G38    29.74F HX  82
STORM LAKE *   SUNNY     79  68  69 S17G26    29.80F HX  81
$$

IAZ055>058-069>071-079>083-090>094-192000-
   SOUTHWEST IOWA

CITY           SKY/WX    TMP DP  RH WIND       PRES   REMARKS
ATLANTIC *     SUNNY     75  66  73 S15G21    29.88F
AUDUBON *      SUNNY     77  64  65 S13G22    29.88F
CLARINDA *     MOSUNNY   75  66  73 SE9G16    29.94F
COUNCIL BLFS * SUNNY     77  70  78 S14G21    29.87F
CRESTON *      SUNNY     73  66  78 S20       29.95F
HARLAN  *      SUNNY     75  66  73 S17G24    29.90F
LAMONI         SUNNY     74  64  71 S14G23    29.97F
RED OAK *      SUNNY     75  66  73 S17       29.90F
SHENANDOAH *   SUNNY     77  66  69 S13G22    29.92F
$$

IAZ047>049-059>061-072>074-084-192000-
   CENTRAL IOWA

CITY           SKY/WX    TMP DP  RH WIND       PRES   REMARKS
AMES           SUNNY     77  64  64 S17G26    29.89F
ANKENY *       SUNNY     77  64  65 S18G26    29.91F
CHARITON *     SUNNY     75  63  64 S20       29.97F
DES MOINES     PTSUNNY   79  63  57 S17       29.92F HX  80
GRINNELL*      MOSUNNY   73  59  60 S17       29.97F
KNOXVILLE *    MOSUNNY   75  63  64 S14G22    29.95F
MARSHALLTOWN   MOSUNNY   76  61  59 S24G30    29.91F
PELLA *        MOSUNNY   77  63  61 S13       29.98F
PERRY *          N/A     79  64  61 S17G24    29.89F HX  81
$$

IAZ004>006-015-016-023>025-035-036-192000-
   NORTH CENTRAL IOWA

CITY           SKY/WX    TMP DP  RH WIND       PRES   REMARKS
ALGONA *       SUNNY     81  66  61 S24G36    29.78F HX  83
CLARION *        N/A     79  64  61 S21G33    29.83F HX  81
ESTHERVILLE    SUNNY     81  64  56 S26G35    29.73F HX  82
FORT DODGE *   SUNNY     81  64  57 S18G30    29.84F HX  82
MASON CITY     SUNNY     78  62  57 S24G35    29.83F HX  80
FOREST CITY *  SUNNY     79  63  57 S26G33    29.81F HX  80
IOWA FALLS *     N/A     77  61  57 S21G29    29.89F
$$

IAZ007>011-017>019-026>030-037>042-050>054-066-192000-
   NORTHEAST IOWA

CITY           SKY/WX    TMP DP  RH WIND       PRES   REMARKS
CEDAR RAPIDS   MOSUNNY   73  58  59 S15G26    29.98F
CHARLES CITY * SUNNY     75  59  57 S22G31    29.88F
CLINTON *      SUNNY     73  52  46 S17G23    30.05F
DECORAH *      PTSUNNY   72  57  60 S13G28    29.91F
DUBUQUE        SUNNY     72  52  49 S20       30.01F
MONTICELLO *   SUNNY     75  55  50 S18G25    29.99F
OELWEIN *      PTSUNNY   73  57  56 S22G32    29.94F
WATERLOO       PTSUNNY   75  59  57 S20G30    29.91F
$$

IAZ064-065-067-068-078-192000-
   EAST CENTRAL IOWA

CITY           SKY/WX    TMP DP  RH WIND       PRES   REMARKS
DAVENPORT      SUNNY     74  50  42 S17       30.03F
IOWA CITY      MOSUNNY   74  57  55 S16G24    30.01F
MT. PLEASANT * SUNNY     77  52  41 SE9G22    30.01F
MUSCATINE *    SUNNY     77  52  41 S18G25    30.01F
QUAD CITIES    SUNNY     74  52  46 S13G21    30.02F
$$

IAZ062-063-075>077-085>089-095>099-192000-
   SOUTHEAST IOWA

CITY           SKY/WX    TMP DP  RH WIND       PRES   REMARKS
BURLINGTON     SUNNY     75  56  51 S14       30.03F
FAIRFIELD *    SUNNY     75  55  50 S14G22    30.00F
FORT MADISON * SUNNY     79  54  41 S13       30.04F
KEOKUK *       SUNNY     75  57  53 S13       30.02F
OSKALOOSA *      N/A     73  61  64 S17       30.00F
CENTERVILLE *  SUNNY     75  63  64 S14       30.02F
OTTUMWA        MOSUNNY   75  58  55 S14G23    29.99F
WASHINGTON *   SUNNY     75  57  53 S18       30.00F
$$

ABBREVIATIONS USED IN REMARKS
   TC - TEMPERATURES IN CELSIUS
  WCI - WIND CHILL INDEX
   HX - HEAT INDEX
  VSB - VISIBILITY
$$




USA.gov is the U.S. government's official web portal to all federal, state and local government web resources and services.